Weather History for KFRG - July, 2014

Change the Weather History Date:

Thursday, July 3, 2014

  Actual Average Record
Temperature  
Mean Temperature 76 °F -  
Max Temperature 84 °F 80 °F 97 °F (2002)
Min Temperature 69 °F 64 °F 53 °F (2001)
Cooling Degree Days 10    
Growing Degree Days 26 (Base 50)    
Moisture  
Dew Point 70 °F    
Average Humidity 87    
Maximum Humidity 97    
Minimum Humidity 69    
Precipitation  
Precipitation 0.25 in - - ()
Sea Level Pressure  
Sea Level Pressure 29.96 in    
Wind  
Wind Speed 5 mph (SSW)    
Max Wind Speed 17 mph    
Max Gust Speed 32 mph    
Visibility 9 miles    
Events Rain , Thunderstorm    
Averages and records for this station are not official NWS values.
T = Trace of Precipitation, MM = Missing Value Source: NWS Daily Summary

Daily Weather History Graph

Daily Weather History Graph

Search for Another Location

Airport or City:

Trip Planner

Search our weather history database for the weather conditions in past years. The results will help you decide how hot, cold, wet, or windy it might be!

Date:

Astronomy

Jul. 03, 2014 Rise Set
Actual Time 5:27 AM EDT 8:28 PM EDT
Civil Twilight 4:54 AM EDT 9:01 PM EDT
Nautical Twilight 4:11 AM EDT 9:43 PM EDT
Astronomical Twilight 3:22 AM EDT 10:32 PM EDT
Moon 11:26 AM EDT (7/3) 11:47 PM EDT (7/3)
Length of Visible Light 16h 07m
Length of Day
15h 01m
Waxing Crescent, 33% of the Moon is Illuminated
Jul 3
Waxing Crescent
Jul 5
First Quarter
Jul 12
Full
Jul 18
Last Quarter
Jul 26
New

Hourly Weather History & Observations

Time (EDT) Temp. Heat Index Dew Point Humidity Pressure Visibility Wind Dir Wind Speed Gust Speed Precip Events Conditions
12:43 AM 71.6 °F - 69.8 °F 94% 29.92 in 10.0 mi Calm Calm - N/A   Mostly Cloudy
12:48 AM 71.6 °F - 69.8 °F 94% 29.92 in 10.0 mi Calm Calm - N/A   Overcast
12:53 AM 72.0 °F - 70.0 °F 93% 29.92 in 10.0 mi Calm Calm - N/A   Overcast
1:10 AM 73.4 °F - 69.8 °F 88% 29.92 in 10.0 mi Calm Calm - N/A   Scattered Clouds
1:53 AM 73.0 °F - 70.0 °F 90% 29.91 in 10.0 mi Calm Calm - N/A   Clear
2:53 AM 72.0 °F - 71.1 °F 97% 29.93 in 10.0 mi Calm Calm - N/A   Clear
3:53 AM 72.0 °F - 71.1 °F 97% 29.94 in 9.0 mi SSE 3.5 mph - N/A   Partly Cloudy
4:53 AM 72.0 °F - 71.1 °F 97% 29.92 in 10.0 mi Calm Calm - 0.00 in Rain Light Rain
5:53 AM 73.0 °F - 72.0 °F 96% 29.93 in 10.0 mi Calm Calm - 0.01 in   Scattered Clouds
6:53 AM 73.0 °F - 71.1 °F 93% 29.95 in 9.0 mi West 8.1 mph - N/A   Clear
7:53 AM 73.9 °F - 72.0 °F 93% 29.96 in 10.0 mi WNW 3.5 mph - N/A   Clear
8:53 AM 78.1 °F - 72.0 °F 81% 29.96 in 10.0 mi Variable 4.6 mph - N/A   Partly Cloudy
10:53 AM 82.0 °F 86.7 °F 72.0 °F 71% 29.96 in 10.0 mi SSW 5.8 mph - N/A   Partly Cloudy
11:53 AM 81.0 °F 85.2 °F 72.0 °F 74% 29.98 in 10.0 mi SSW 10.4 mph - N/A   Clear
12:53 PM 80.1 °F 83.6 °F 71.1 °F 74% 29.98 in 10.0 mi South 11.5 mph - N/A   Clear
1:53 PM 80.1 °F 83.6 °F 71.1 °F 74% 29.97 in 10.0 mi SSE 9.2 mph - N/A   Clear
3:53 PM 82.9 °F 88.0 °F 72.0 °F 69% 29.94 in 10.0 mi South 10.4 mph - N/A   Clear
4:53 PM 81.0 °F 85.8 °F 73.0 °F 77% 29.93 in 10.0 mi South 13.8 mph - N/A   Clear
5:53 PM 79.0 °F - 73.0 °F 82% 29.91 in 10.0 mi South 16.1 mph - N/A   Partly Cloudy
6:34 PM 77.0 °F - 73.4 °F 89% 29.91 in 9.0 mi South 15.0 mph - N/A   Mostly Cloudy
6:53 PM 77.0 °F - 73.0 °F 88% 29.91 in 8.0 mi SSW 13.8 mph 21.9 mph N/A   Overcast
8:53 PM 77.0 °F - 72.0 °F 84% 29.99 in 10.0 mi NW 17.3 mph 32.2 mph N/A Thunderstorm Mostly Cloudy
8:56 PM 75.2 °F - 69.8 °F 83% 30.00 in 10.0 mi NNW 15.0 mph 32.2 mph N/A Thunderstorm Mostly Cloudy
9:05 PM 73.4 °F - 66.2 °F 78% 30.02 in 10.0 mi NNW 16.1 mph 31.1 mph 0.00 in Rain , Thunderstorm Light Rain
9:28 PM 69.8 °F - 66.2 °F 88% 30.05 in 2.5 mi NNW 16.1 mph 23.0 mph 0.19 in Rain , Thunderstorm Heavy Rain
9:33 PM 69.8 °F - 66.2 °F 88% 30.04 in 3.0 mi NNW 10.4 mph 21.9 mph 0.22 in Rain Heavy Rain
9:53 PM 70.0 °F - 68.0 °F 93% 30.02 in 10.0 mi ENE 4.6 mph - 0.24 in Rain , Thunderstorm Light Rain
10:20 PM 69.8 °F - 68.0 °F 94% 30.01 in 10.0 mi Calm Calm - 0.00 in   Mostly Cloudy
10:53 PM 70.0 °F - 68.0 °F 93% 30.00 in 10.0 mi East 3.5 mph - 0.00 in   Clear
11:53 PM 69.1 °F - 68.0 °F 96% 30.00 in 10.0 mi SE 4.6 mph - N/A   Clear